Terminal Aerodrome Forecast
Issued by NWS

Home | Current Version | Previous Version | Text Only | Print | Product List | Glossary On
Versions: 1 2 3 4 5 6 7 8 9 10 11 12
462
FTUS45 KFGZ 082328
TAFPGA
TAF
KPGA 082328Z 0900/0924 VRB05KT P6SM SCT170 BKN250=

USA.gov is the U.S. government's official web portal to all federal, state and local government web resources and services.